Walla Walla, WA

6:30 AM PDT on July 25, 2017 (GMT -0700)
Walla Walla Regional

Weather History for KALW - June, 2013

Change the Weather History Date:

Wednesday, June 19, 2013

  Actual Average Record
Temperature  
Mean Temperature 55 °F 67 °F  
Max Temperature 59 °F 80 °F 102 °F (1985)
Min Temperature 51 °F 55 °F 44 °F (1986)
Degree Days  
Heating Degree Days 10 2  
Month to date heating degree days 50  
Since 1 June heating degree days 50  
Since 1 July heating degree days 4999  
Cooling Degree Days 0 4  
Month to date cooling degree days 50  
Year to date cooling degree days 85  
Since 1 June cooling degree days 50  
Growing Degree Days 5 (Base 50)    
Moisture  
Dew Point 49 °F    
Average Humidity 81    
Maximum Humidity 94    
Minimum Humidity 72    
Precipitation  
Precipitation 0.59 in 0.04 in 0.62 in (2013)
Month to date precipitation 0.98  
Year to date precipitation 11.62  
Snow  
Snow 0.00 in 0.00 in 0.00 in (2002)
Month to date snowfall 0.0  
Year to date snowfall 6.0  
Since 1 July snowfall 11.7  
Snow Depth -    
Sea Level Pressure  
Sea Level Pressure 29.88 in    
Wind  
Wind Speed 9 mph (South)    
Max Wind Speed 18 mph    
Max Gust Speed 28 mph    
Visibility 9 miles    
Events Rain    
T = Trace of Precipitation, MM = Missing Value Source: NWS Daily Summary

Daily Weather History Graph

Daily Weather History Graph

Search for Another Location

Airport or City:

Trip Planner

Search our weather history database for the weather conditions in past years. The results will help you decide how hot, cold, wet, or windy it might be!

Date:

Astronomy

Jun. 19, 2013 Rise Set
Actual Time 5:01 AM PDT 8:47 PM PDT
Civil Twilight 4:22 AM PDT 9:26 PM PDT
Nautical Twilight 3:30 AM PDT 10:18 PM PDT
Astronomical Twilight 2:17 AM PDT 11:32 PM PDT
Moon 4:37 PM PDT (6/19) 2:00 AM PDT (6/19)
Length of Visible Light 17h 03m
Length of Day
15h 45m
Waxing Gibbous, 81% of the Moon is Illuminated
Jun 19
Waxing Gibbous
Jun 23
Full
Jun 29
Last Quarter
Jul 8
New
Jul 15
First Quarter

Hourly Weather History & Observations

Time (PDT) Temp. Dew Point Humidity Pressure Visibility Wind Dir Wind Speed Gust Speed Precip Events Conditions
12:48 AM 59.0 °F 51.8 °F 77% 29.85 in 10.0 mi Calm Calm - N/A   Overcast
12:53 AM 59.0 °F 51.1 °F 75% 29.85 in 10.0 mi Calm Calm - N/A   Overcast
1:25 AM 57.2 °F 51.8 °F 82% 29.85 in 10.0 mi SE 4.6 mph - N/A   Overcast
1:48 AM 57.2 °F 51.8 °F 82% 29.84 in 10.0 mi SE 4.6 mph - N/A   Overcast
1:53 AM 57.9 °F 51.1 °F 78% 29.83 in 10.0 mi SE 5.8 mph - N/A   Overcast
2:53 AM 57.9 °F 50.0 °F 75% 29.83 in 10.0 mi South 11.5 mph - N/A   Overcast
3:53 AM 55.9 °F 46.9 °F 72% 29.83 in 10.0 mi South 11.5 mph - N/A   Overcast
4:53 AM 54.0 °F 46.9 °F 77% 29.84 in 10.0 mi Variable 5.8 mph 27.6 mph N/A   Overcast
5:53 AM 52.0 °F 48.9 °F 89% 29.84 in 10.0 mi South 12.7 mph - 0.00 in Rain Light Rain
6:53 AM 53.1 °F 48.9 °F 86% 29.84 in 10.0 mi South 15.0 mph - 0.00 in Rain Light Rain
7:03 AM 53.6 °F 48.2 °F 82% 29.84 in 10.0 mi South 16.1 mph - 0.00 in Rain Light Rain
7:53 AM 52.0 °F 50.0 °F 93% 29.85 in 6.0 mi South 12.7 mph - 0.02 in Rain Light Rain
8:53 AM 52.0 °F 50.0 °F 93% 29.86 in 4.0 mi South 10.4 mph - 0.08 in Rain Light Rain
9:39 AM 51.8 °F 50.0 °F 94% 29.86 in 4.0 mi South 13.8 mph - 0.07 in Rain Rain
9:53 AM 52.0 °F 50.0 °F 93% 29.87 in 4.0 mi South 12.7 mph - 0.09 in Rain Rain
10:53 AM 53.1 °F 50.0 °F 89% 29.87 in 9.0 mi South 13.8 mph - 0.04 in Rain Light Rain
11:53 AM 54.0 °F 50.0 °F 86% 29.88 in 6.0 mi South 13.8 mph - 0.04 in Rain Light Rain
12:53 PM 55.0 °F 50.0 °F 83% 29.87 in 10.0 mi South 17.3 mph - 0.04 in Rain Light Rain
1:53 PM 55.0 °F 48.0 °F 77% 29.88 in 9.0 mi South 15.0 mph - 0.02 in Rain Light Rain
2:53 PM 55.0 °F 48.9 °F 80% 29.90 in 7.0 mi South 12.7 mph - 0.03 in Rain Light Rain
3:53 PM 54.0 °F 48.9 °F 83% 29.91 in 8.0 mi South 17.3 mph - 0.07 in Rain Light Rain
4:53 PM 54.0 °F 48.0 °F 80% 29.92 in 5.0 mi SSE 18.4 mph - 0.05 in Rain Rain
5:53 PM 55.0 °F 48.0 °F 77% 29.91 in 8.0 mi SSE 16.1 mph - 0.05 in Rain Light Rain
6:53 PM 55.0 °F 48.0 °F 77% 29.91 in 10.0 mi South 15.0 mph 24.2 mph 0.03 in Rain Light Rain
7:53 PM 55.9 °F 46.9 °F 72% 29.93 in 10.0 mi South 17.3 mph - 0.01 in Rain Light Rain
8:53 PM 55.9 °F 48.0 °F 75% 29.94 in 10.0 mi South 16.1 mph - 0.01 in Rain Light Rain
9:53 PM 55.9 °F 48.0 °F 75% 29.94 in 10.0 mi South 16.1 mph - 0.00 in   Overcast
10:53 PM 55.0 °F 48.0 °F 77% 29.94 in 10.0 mi South 13.8 mph - 0.00 in Rain Light Rain
11:53 PM 55.0 °F 48.0 °F 77% 29.96 in 9.0 mi South 11.5 mph - 0.01 in Rain Light Rain